Preview of NWS' New Version of Forecast
This preview is not operational and should not be used for support decisions.

Regional Weather Roundup (RWR)

Issued by National Weather Service (NWS)

                            
000
ASUS46 KSEW 211910
RWRWA 

WASHINGTON REGIONAL WEATHER ROUNDUP
NATIONAL WEATHER SERVICE SEATTLE WA
1200 PM PDT SUN APR 21 2019

NOTE:"FAIR" INDICATES FEW OR NO CLOUDS BELOW 12,000 FEET WITH NO 
SIGNIFICANT WEATHER AND/OR OBSTRUCTIONS TO VISIBILITY.

WAZ507-509-555>559-212000-
SEATTLE, TACOMA, EVERETT, AND VICINITY
  
CITY           SKY/WX    TMP DP  RH WIND       PRES   REMARKS
EVERETT        PTSUNNY   51  44  77 SW12      30.31F                  
BOEING FIELD   PTSUNNY   56  43  61 VRB6      30.32F                  
RENTON         PTSUNNY   56  42  59 S7        30.32S                  
SEATAC AIRPORT CLOUDY    54  43  66 S6        30.32S                  
JBLM-MCCHORD   CLOUDY    56  48  75 S9        30.32S                  
PUYALLUP       PTSUNNY   57  45  62 VRB5      30.32S                  
BREMERTON      CLOUDY    54  43  66 SW8       30.32R                  
JBLM-FT LEWIS  MOSUNNY   55  48  77 S9        30.32S                  
TACOMA NARROWS CLOUDY    53  41  63 CALM      30.33R                  
$$
 
WAZ001-503-506-510-514-515-212000-
NORTH INTERIOR
  
CITY           SKY/WX    TMP DP  RH WIND       PRES   REMARKS
BELLINGHAM     PTSUNNY   54  45  71 S13G20    30.30R                  
FRIDAY HARBOR  CLOUDY    56  42  59 S8        30.32S                  
EASTSOUND      MOSUNNY   55  45  67 S13G18    30.29S                  
PORT ANGELES   CLOUDY    52  42  69 NW10      30.32S                  
EDIZ HOOK      CLOUDY    53  44  74 NW9       30.32S                  
PORT TOWNSEND  CLOUDY    50  46  87 E5        30.32R                  
NAS WHIDBEY    PTSUNNY   54  45  71 S10       30.36R                  
ARLINGTON      CLOUDY    55  46  71 S8        30.32F                  
BURLINGTON     CLOUDY    54  48  82 SW12      30.32R                  
$$
 
WAZ020-022-039-040-504-511-512-212000-
SOUTHWEST INTERIOR
  
CITY           SKY/WX    TMP DP  RH WIND       PRES   REMARKS
SHELTON        MOSUNNY   56  40  55 SW13      30.30R                  
OLYMPIA        PTSUNNY   55  41  59 S10       30.33R                  
CHEHALIS       CLOUDY    55  43  62 SW6       30.34S                  
KELSO          CLOUDY    54  41  61 CALM      30.35S                  
VANCOUVER      CLOUDY    54  42  64 S5        30.34F                  
SCAPPOOSE, OR  CLOUDY    56  43  61 CALM      30.33F                  
PORTLAND, OR   PTSUNNY   57  42  57 CALM      30.34F                  
$$
 
WAZ021-516-517-212000-
WASHINGTON COAST
  
CITY           SKY/WX    TMP DP  RH WIND       PRES   REMARKS
FORKS          CLOUDY    50  39  66 CALM      30.33R                  
HOQUIAM        CLOUDY    51  43  74 SW8       30.35R                  
ASTORIA, OR    CLOUDY    52  38  58 N6        30.35R                  
$$
 
WAZ019-023-024-040-567>569-212000-
CASCADE MOUNTAINS AND COLUMBIA GORGE
  
CITY           SKY/WX    TMP DP  RH WIND       PRES   REMARKS
STAMPEDE PASS  CLOUDY    45  34  65 VRB5      30.24S                  
TROUTDALE, OR  CLOUDY    56  41  57 CALM      30.34S                  
HOOD RIVER, OR CLEAR     59  39  47 MISG      30.27S                  
THE DALLES, OR SUNNY     62  42  47 NW18      30.24F                  
$$

WAZ026-027-041>044-520-521-212000-
EAST SLOPES
  
CITY           SKY/WX    TMP DP  RH WIND       PRES   REMARKS
OMAK           SUNNY     63  27  25 N7        30.17F                  
WENATCHEE      SUNNY     63  31  30 NW8       30.18S                  
ELLENSBURG     SUNNY     63  37  38 NW8       30.19S                  
YAKIMA         SUNNY     64  36  35 S6        30.19F                  
SUNNYSIDE ARPT CLEAR     65  38  37 CALM      30.20S                  
YAKIMA TC      FAIR      62  33  34 SW5       30.18S                  
$$

WAZ028-034-035-212000-
COLUMBIA BASIN
  
CITY           SKY/WX    TMP DP  RH WIND       PRES   REMARKS
EPHRATA        SUNNY     66  21  18 VRB6      30.17S                  
MOSES LAKE     SUNNY     66  27  23 NW9       30.18S                  
PASCO          SUNNY     66  33  29 VRB3      30.20F                  
RICHLAND ARPT  CLEAR     67  36  31 SW6       30.20                   
HERMISTON, OR  SUNNY     64  38  38 W8        30.21S                  
$$

WAZ036>038-212000-
NORTHEAST WASHINGTON
  
CITY           SKY/WX    TMP DP  RH WIND       PRES   REMARKS
SPOKANE GEIGER MOSUNNY   57  38  48 CALM      30.16F                  
SPOKANE FELTS  SUNNY     59  37  44 CALM      30.17F                  
FAIRCHILD AFB  SUNNY     57  40  53 S5        30.16F                  
COEURDALENE,ID SUNNY     59  38  45 VRB3      30.16F                  
DEER PARK      SUNNY     59  36  42 CALM      30.16F                  
$$

WAZ029>033-212000-
SOUTHEAST WASHINGTON
  
CITY           SKY/WX    TMP DP  RH WIND       PRES   REMARKS
PULLMAN        SUNNY     54  39  57 W10       30.20R                  
LEWISTON, ID   SUNNY     62  40  44 N9        30.17S                  
WALLA WALLA    SUNNY     58  33  39 SW6       30.21S                  
PENDLETON, OR  SUNNY     58  36  43 W5        30.21S                  
$$